Glens Falls, NY

1:11 PM EST on November 15, 2019 (GMT -0500)
Bennett Memorial

Weather History for KGFL - September, 2019

Change the Weather History Date:

Monday, September 30, 2019

  Actual Average Record
Temperature  
Mean Temperature 51 °F 52 °F  
Max Temperature 64 °F 65 °F 84 °F (1905)
Min Temperature 37 °F 40 °F 25 °F (1991)
Degree Days  
Heating Degree Days 14 13  
Month to date heating degree days 194 220  
Since 1 July heating degree days 222 285  
Cooling Degree Days 0 0  
Month to date cooling degree days 21 24  
Year to date cooling degree days 416 351  
Moisture  
Dew Point 44 °F    
Average Humidity 70    
Maximum Humidity 93    
Minimum Humidity 47    
Precipitation  
Precipitation 0.00 in 0.12 in 2.48 in (2010)
Month to date precipitation 2.06 3.38  
Year to date precipitation 30.85 29.19  
Sea Level Pressure  
Sea Level Pressure 30.30 in    
Wind  
Wind Speed 3 mph (South)    
Max Wind Speed 10 mph    
Max Gust Speed 13 mph    
Visibility 9 miles    
Events Rain    
T = Trace of Precipitation, MM = Missing Value Source: NWS Daily Summary

Daily Weather History Graph

Daily Weather History Graph

Search for Another Location

Airport or City:

Astronomy

Sep. 30, 2019 Rise Set
Actual Time 6:50 AM EDT 6:37 PM EDT
Civil Twilight 6:21 AM EDT 7:06 PM EDT
Nautical Twilight 5:48 AM EDT 7:39 PM EDT
Astronomical Twilight 5:15 AM EDT 8:12 PM EDT
Moon 8:53 AM EDT (9/30) 8:08 PM EDT (9/30)
Length of Visible Light 12h 44m
Length of Day
11h 47m
Waxing Crescent, 5% of the Moon is Illuminated
Sep 30
Waxing Crescent
Oct 5
First Quarter
Oct 13
Full
Oct 21
Last Quarter
Oct 27
New

Hourly Weather History & Observations

Time (EDT) Temp. Windchill Dew Point Humidity Pressure Visibility Wind Dir Wind Speed Gust Speed Precip Events Conditions
1:53 AM 48.9 °F - 41.0 °F 74% 30.40 in 10.0 mi North 3.5 mph - N/A   Clear
2:53 AM 46.0 °F 44.8 °F 39.9 °F 79% 30.39 in 10.0 mi NE 3.5 mph - N/A   Clear
3:53 AM 42.1 °F - 39.0 °F 89% 30.39 in 10.0 mi Calm Calm - N/A   Clear
4:53 AM 41.0 °F - 39.0 °F 93% 30.38 in 10.0 mi Calm Calm - N/A   Clear
5:16 AM 37.0 °F - 37.0 °F 100% 30.37 in 1.8 mi Calm Calm - N/A   Clear
5:26 AM 37.0 °F - 37.0 °F 100% 30.37 in 4.0 mi Calm Calm - N/A   Clear
5:53 AM 39.0 °F - 37.9 °F 96% 30.38 in 10.0 mi Calm Calm - N/A   Clear
6:40 AM 37.0 °F - 36.0 °F 96% 30.38 in 2.5 mi Calm Calm - N/A   Clear
6:53 AM 39.0 °F - 37.9 °F 96% 30.39 in 10.0 mi Calm Calm - N/A   Clear
7:01 AM 37.0 °F - 36.0 °F 96% 30.38 in 1.8 mi Calm Calm - N/A   Clear
7:11 AM 39.0 °F - 37.0 °F 93% 30.37 in 4.0 mi Calm Calm - N/A   Clear
7:53 AM 43.0 °F - 39.9 °F 89% 30.40 in 10.0 mi Calm Calm - N/A   Clear
8:53 AM 48.9 °F - 42.1 °F 77% 30.40 in 10.0 mi SE 3.5 mph - N/A   Clear
9:53 AM 52.0 °F - 42.1 °F 69% 30.40 in 10.0 mi NE 3.5 mph - N/A   Clear
10:53 AM 55.9 °F - 37.9 °F 51% 30.37 in 10.0 mi Calm Calm - N/A   Clear
11:53 AM 59.0 °F - 39.9 °F 49% 30.36 in 10.0 mi North - - N/A   Scattered Clouds
12:53 PM 60.1 °F - 41.0 °F 49% 30.32 in 10.0 mi SSE 9.2 mph - N/A   Overcast
1:53 PM 61.0 °F - 41.0 °F 48% 30.30 in 10.0 mi North - - N/A   Scattered Clouds
2:53 PM 62.1 °F - 44.1 °F 52% 30.27 in 10.0 mi South 4.6 mph - N/A   Clear
3:53 PM 62.1 °F - 45.0 °F 53% 30.25 in 10.0 mi SW 4.6 mph - N/A   Overcast
4:53 PM 62.1 °F - 46.0 °F 56% 30.23 in 10.0 mi SW 6.9 mph - N/A   Overcast
5:53 PM 61.0 °F - 48.9 °F 64% 30.22 in 10.0 mi Calm Calm - N/A   Overcast
6:53 PM 57.9 °F - 51.1 °F 78% 30.20 in 10.0 mi Calm Calm - N/A   Overcast
7:53 PM 57.9 °F - 51.1 °F 78% 30.19 in 10.0 mi Calm Calm - N/A   Overcast
8:53 PM 57.0 °F - 52.0 °F 83% 30.19 in 10.0 mi Calm Calm - N/A   Overcast
9:32 PM 57.9 °F - 51.1 °F 78% 30.18 in 10.0 mi WSW 4.6 mph - N/A   Overcast
9:53 PM 57.0 °F - 53.1 °F 87% 30.19 in 10.0 mi SSW 5.8 mph - 0.00 in Rain Light Rain
10:21 PM 57.0 °F - 54.0 °F 89% 30.17 in 10.0 mi SSW 5.8 mph - 0.00 in   Overcast
10:53 PM 55.9 °F - 54.0 °F 93% 30.17 in 10.0 mi South 6.9 mph - 0.00 in   Overcast
11:53 PM 55.9 °F - 54.0 °F 93% 30.14 in 10.0 mi SSW 6.9 mph - N/A   Overcast